Tracking 20719 objects as of 25-May-2020
HD Live streaming from Space Station
objects crossing your sky now

WESTFORD NEEDLES

Track WESTFORD NEEDLES now!
10-day predictions
WESTFORD NEEDLES is classified as:


NORAD ID: 2375
Int'l Code: 1963-014W
Perigee: 1,601.9 km
Apogee: 5,518.9 km
Inclination: 86.2 °
Period: 164.2 minutes
Semi major axis: 9931 km
RCS: 0.1605 m2 (medium)
Launch date: May 9, 1963
Source: United States (US)
Launch site: AIR FORCE WESTERN TEST RANGE (AFWTR)
aabbcc
Your satellite tracking list
Your tracking list is empty




NASA's NSSDC Master Catalog

Two Line Element Set (TLE):
1  2375U 63014W   20143.06718785 +.00002425 +00000-0 +13459+0 0  9997
2  2375 086.2143 011.1523 1972018 132.3636 246.2019 08.77180898177362
Source of the keplerian elements: AFSPC